カタログに戻る

SL-14 DEB

運用中PO
NORAD 25444·DEBRIS·🇷🇺 Russia

打ち上げ Aug 18, 1987 から Plesetsk Cosmodrome

Loading…

次のパス (今後24時間)

TLE

最新Source: Space-Track

元期: Sep 14, 2026, 10:23 UTC

1 25444U 87068BX  26257.43266059  .00000442  00000-0  30474-3 0  9996
2 25444  82.5551 125.9220 0017515 137.6568  38.0367 13.97167612438750

AllMySatでSL-14 DEBをリアルタイム追跡

Download on the App Store